Location: Arrodets-la-Barthe
(43.0306°N, 0.2829°E)
Time: 14:02:29
(UTC+00:00)

Lacrosse 4 Rocket - Pass Details

Date: 24 October 2021
Orbit: 537 x 619 km, 68.0° (Epoch: 08 December)

Event Time Altitude Azimuth Distance (km) Brightness Sun altitude
Rises 17:27:28 0° 341° (NNW) 2,808 5.0 -5.4°
Reaches altitude 10° 17:30:01 10° 355° (N) 1,920 4.0 -5.8°
Maximum altitude 17:33:34 24° 50° (NE) 1,238 2.6 -6.5°
Drops below altitude 10° 17:37:11 10° 106° (ESE) 1,950 3.6 -7.1°
Enters shadow 17:38:43 - 115° (ESE) 2,473 4.1 -7.4°
